When you browse on this site, cookies collect data to enhance your experience and personalize the content and advertising you see.
Visit our Privacy Policy to learn more. By continuing to use the site, you agree to this use of cookies and data.
  • In Hungary
  • List of Countries
  • For 7 days
  • Water Temperature
  • Weather Map
  • News
  • Weather Widgets
  • user-avatar
    Login

    Hourly Weather Haskovo

    Today, 30 May, Saturday

    Time Temperature Precipitation Wind Pressure Humidity
    00:00 +12°C° 0 mm 1 mps 740 mmHg 82%
    01:00 +11°C° 0 mm 1 mps 740 mmHg 83%
    02:00 +11°C° 0 mm 1 mps 740 mmHg 83%
    03:00 +11°C° 0 mm 1 mps 740 mmHg 83%
    04:00 +10°C° 0 mm 1 mps 740 mmHg 84%
    05:00 +10°C° 0 mm 1 mps 740 mmHg 84%
    06:00 +12°C° 0 mm 1 mps 740 mmHg 80%
    07:00 +14°C° 0 mm 2 mps 740 mmHg 75%
    08:00 +16°C° 0 mm 2 mps 740 mmHg 71%
    09:00 +17°C° 0 mm 2 mps 740 mmHg 66%
    10:00 +19°C° 0 mm 2 mps 740 mmHg 61%
    11:00 +20°C° 0 mm 2 mps 740 mmHg 56%
    12:00 +20°C° 0.6 mm 3 mps 740 mmHg 57%
    13:00 +21°C° 0.6 mm 3 mps 740 mmHg 57%
    14:00 +21°C° 0.6 mm 3 mps 740 mmHg 57%
    15:00 +21°C° 0.6 mm 3 mps 739 mmHg 60%
    16:00 +21°C° 0.6 mm 3 mps 739 mmHg 63%
    17:00 +20°C° 0.6 mm 3 mps 739 mmHg 66%
    18:00 +19°C° 0.2 mm 3 mps 739 mmHg 71%
    19:00 +17°C° 0.2 mm 3 mps 739 mmHg 75%
    20:00 +16°C° 0.2 mm 3 mps 739 mmHg 80%
    21:00 +14°C° 0 mm 3 mps 739 mmHg 81%
    22:00 +14°C° 0 mm 2 mps 739 mmHg 82%
    23:00 +14°C° 0 mm 2 mps 739 mmHg 84%

    Tomorrow, 31 May, Sunday

    Time Temperature Precipitation Wind Pressure Humidity
    00:00 +13°C° 0 mm 2 mps 739 mmHg 84%
    01:00 +13°C° 0 mm 1 mps 739 mmHg 85%
    02:00 +12°C° 0 mm 1 mps 739 mmHg 86%
    03:00 +12°C° 0 mm 1 mps 739 mmHg 86%
    04:00 +12°C° 0 mm 1 mps 739 mmHg 86%
    05:00 +12°C° 0 mm 1 mps 738 mmHg 86%
    06:00 +13°C° 0 mm 1 mps 739 mmHg 81%
    07:00 +15°C° 0 mm 1 mps 739 mmHg 76%
    08:00 +18°C° 0 mm 1 mps 739 mmHg 71%
    09:00 +19°C° 0.6 mm 1 mps 739 mmHg 67%
    10:00 +21°C° 0.6 mm 1 mps 739 mmHg 63%
    11:00 +22°C° 0.6 mm 1 mps 739 mmHg 58%
    12:00 +21°C° 0.8 mm 2 mps 739 mmHg 60%
    13:00 +21°C° 0.8 mm 3 mps 738 mmHg 62%
    14:00 +21°C° 0.8 mm 3 mps 738 mmHg 64%
    15:00 +20°C° 0.8 mm 3 mps 737 mmHg 68%
    16:00 +20°C° 0.8 mm 3 mps 737 mmHg 71%
    17:00 +19°C° 0.8 mm 3 mps 737 mmHg 75%
    18:00 +18°C° 0.4 mm 3 mps 737 mmHg 78%
    19:00 +17°C° 0.4 mm 2 mps 737 mmHg 81%
    20:00 +16°C° 0.4 mm 2 mps 737 mmHg 83%
    21:00 +15°C° 0.2 mm 2 mps 737 mmHg 85%
    22:00 +14°C° 0.2 mm 2 mps 737 mmHg 87%
    23:00 +14°C° 0.2 mm 1 mps 737 mmHg 89%

    Day after tomorrow, 1 June, Monday

    Time Temperature Precipitation Wind Pressure Humidity
    00:00 +14°C° 0.1 mm 1 mps 737 mmHg 89%
    01:00 +14°C° 0.1 mm 1 mps 737 mmHg 89%
    02:00 +14°C° 0.1 mm 1 mps 737 mmHg 89%
    03:00 +13°C° 0.5 mm 1 mps 737 mmHg 91%
    04:00 +13°C° 0.5 mm 1 mps 737 mmHg 93%
    05:00 +13°C° 0.5 mm 2 mps 736 mmHg 94%
    06:00 +13°C° 1.2 mm 1 mps 736 mmHg 94%
    07:00 +13°C° 1.2 mm 1 mps 737 mmHg 93%
    08:00 +13°C° 1.2 mm 1 mps 737 mmHg 92%
    09:00 +14°C° 0.2 mm 1 mps 737 mmHg 88%
    10:00 +15°C° 0.2 mm 1 mps 737 mmHg 83%
    11:00 +16°C° 0.2 mm 1 mps 737 mmHg 79%
    12:00 +17°C° 0.2 mm 2 mps 737 mmHg 75%
    13:00 +18°C° 0.2 mm 2 mps 736 mmHg 72%
    14:00 +19°C° 0.2 mm 2 mps 736 mmHg 69%
    15:00 +18°C° 0.8 mm 2 mps 736 mmHg 70%
    16:00 +18°C° 0.8 mm 2 mps 736 mmHg 72%
    17:00 +19°C° 0.8 mm 1 mps 736 mmHg 73%
    18:00 +18°C° 0.5 mm 1 mps 735 mmHg 77%
    19:00 +16°C° 0.5 mm 1 mps 735 mmHg 81%
    20:00 +14°C° 0.5 mm 1 mps 735 mmHg 85%
    21:00 +14°C° 0.1 mm 1 mps 735 mmHg 86%
    22:00 +13°C° 0.1 mm 1 mps 735 mmHg 87%
    23:00 +12°C° 0.1 mm 1 mps 735 mmHg 88%

    2 June, Tuesday

    Time Temperature Precipitation Wind Pressure Humidity
    00:00 +12°C° 0.1 mm 1 mps 735 mmHg 88%
    01:00 +12°C° 0.1 mm 1 mps 735 mmHg 88%
    02:00 +12°C° 0.1 mm 1 mps 735 mmHg 88%
    03:00 +12°C° 0 mm 1 mps 735 mmHg 88%
    04:00 +11°C° 0 mm 1 mps 735 mmHg 89%
    05:00 +11°C° 0 mm 1 mps 735 mmHg 89%
    06:00 +12°C° 0 mm 1 mps 735 mmHg 85%
    07:00 +14°C° 0 mm 2 mps 735 mmHg 82%
    08:00 +14°C° 0 mm 3 mps 735 mmHg 78%
    09:00 +16°C° 0.5 mm 3 mps 736 mmHg 76%
    10:00 +18°C° 0.5 mm 4 mps 736 mmHg 73%
    11:00 +19°C° 0.5 mm 5 mps 736 mmHg 70%
    12:00 +19°C° 0.8 mm 5 mps 736 mmHg 70%
    13:00 +19°C° 0.8 mm 5 mps 736 mmHg 71%
    14:00 +19°C° 0.8 mm 5 mps 736 mmHg 72%
    15:00 +17°C° 0.6 mm 5 mps 736 mmHg 73%
    16:00 +17°C° 0.6 mm 5 mps 736 mmHg 74%
    17:00 +18°C° 0.6 mm 4 mps 736 mmHg 75%
    18:00 +15°C° 0.4 mm 4 mps 736 mmHg 79%
    19:00 +14°C° 0.4 mm 3 mps 736 mmHg 82%
    20:00 +14°C° 0.4 mm 2 mps 736 mmHg 86%
    21:00 +14°C° 0.1 mm 1 mps 736 mmHg 86%
    22:00 +13°C° 0.1 mm 1 mps 736 mmHg 87%
    23:00 +12°C° 0.1 mm 0 mps 737 mmHg 87%

    3 June, Wednesday

    Time Temperature Precipitation Wind Pressure Humidity
    00:00 +12°C° 0.2 mm 0 mps 736 mmHg 88%
    01:00 +12°C° 0.2 mm 0 mps 736 mmHg 90%
    02:00 +11°C° 0.2 mm 0 mps 736 mmHg 91%
    03:00 +12°C° 0 mm 1 mps 736 mmHg 91%
    04:00 +11°C° 0 mm 1 mps 736 mmHg 90%
    05:00 +11°C° 0 mm 1 mps 736 mmHg 90%
    06:00 +12°C° 0.1 mm 1 mps 736 mmHg 86%
    07:00 +13°C° 0.1 mm 2 mps 736 mmHg 83%
    08:00 +14°C° 0.1 mm 2 mps 736 mmHg 79%
    09:00 +15°C° 0 mm 2 mps 736 mmHg 72%
    10:00 +17°C° 0 mm 2 mps 736 mmHg 64%
    11:00 +18°C° 0 mm 2 mps 736 mmHg 57%
    12:00 +19°C° 0.1 mm 2 mps 736 mmHg 55%
    13:00 +19°C° 0.1 mm 2 mps 736 mmHg 54%
    14:00 +20°C° 0.1 mm 2 mps 736 mmHg 53%
    15:00 +20°C° 0.3 mm 2 mps 736 mmHg 57%
    16:00 +19°C° 0.3 mm 2 mps 736 mmHg 61%
    17:00 +19°C° 0.3 mm 2 mps 735 mmHg 65%
    18:00 +18°C° 0.2 mm 2 mps 736 mmHg 71%
    19:00 +16°C° 0.2 mm 2 mps 736 mmHg 77%
    20:00 +15°C° 0.2 mm 2 mps 736 mmHg 83%
    21:00 +14°C° 0 mm 2 mps 736 mmHg 84%
    22:00 +14°C° 0 mm 1 mps 737 mmHg 84%
    23:00 +13°C° 0 mm 1 mps 737 mmHg 84%

    4 June, Thursday

    Time Temperature Precipitation Wind Pressure Humidity
    00:00 +13°C° 0 mm 1 mps 737 mmHg 85%
    01:00 +12°C° 0 mm 1 mps 737 mmHg 86%
    02:00 +11°C° 0 mm 0 mps 737 mmHg 87%
    03:00 +12°C° 0 mm 1 mps 737 mmHg 86%
    04:00 +12°C° 0 mm 1 mps 737 mmHg 85%
    05:00 +11°C° 0 mm 1 mps 737 mmHg 85%
    06:00 +13°C° 0 mm 1 mps 737 mmHg 80%
    07:00 +14°C° 0 mm 0 mps 737 mmHg 76%
    08:00 +15°C° 0 mm 0 mps 737 mmHg 72%
    09:00 +19°C° 0.1 mm 1 mps 738 mmHg 69%
    10:00 +20°C° 0.1 mm 1 mps 738 mmHg 67%
    11:00 +20°C° 0.1 mm 2 mps 738 mmHg 64%
    12:00 +19°C° 0.8 mm 2 mps 738 mmHg 70%
    13:00 +19°C° 0.8 mm 2 mps 738 mmHg 76%
    14:00 +18°C° 0.8 mm 2 mps 737 mmHg 81%
    15:00 +18°C° 0.3 mm 2 mps 737 mmHg 80%
    16:00 +18°C° 0.3 mm 2 mps 737 mmHg 78%
    17:00 +18°C° 0.3 mm 2 mps 737 mmHg 77%
    18:00 +18°C° 0 mm 1 mps 737 mmHg 80%
    19:00 +16°C° 0 mm 1 mps 737 mmHg 83%
    20:00 +15°C° 0 mm 1 mps 737 mmHg 86%
    21:00 +14°C° 0 mm 1 mps 737 mmHg 87%
    22:00 +14°C° 0 mm 1 mps 737 mmHg 88%
    23:00 +13°C° 0 mm 1 mps 737 mmHg 88%
    Show more